Flag for U.S.A. Weather past 2 weeks in Victoria, Texas, U.S.A.

Now
79 °F

Scattered clouds.


Feels Like: 81 °F
Forecast: 66 / 81 °F
Wind: 16 mph from South

Location: Victoria Regional Airport

Current Time: Mar 31, 2015 at 12:37:46 PM

Latest Report: Mar 31, 2015 at 11:51 AM


Visibility: 10 mi

Pressure: 30.08 "Hg

Humidity: 62%

Dew point: 65 °F

Location of VictoriaLocation

Historic Weather in Victoria — Graph

°F

Victoria temperature yesterday

Maximum temperature yesterday: 81 °F (at 3:51 PM)
Minimum temperature yesterday: 65 °F (at 9:51 PM)
Average temperature yesterday: 71 °F

Past Weeks' High & Low Weather Summary

 TemperatureHumidityPressure
High82 °F (Mar 28, 2:51 PM)100% (Mar 17, 1:51 AM)30.27 "Hg (Mar 17, 1:51 AM)
Low44 °F (Mar 27, 5:51 AM)25% (Mar 27, 3:51 PM)29.82 "Hg (Mar 26, 4:51 AM)
Average67 °F83%30.05 "Hg
* Reported Mar 16 10:51 AM — Mar 31 10:51 AM, Victoria, Weather by CustomWeather, © 2015

Note: Actual official high and low records may vary slightly from our data, if they occured in-between our weather recording intervals... More about our weather records

Advertising

Victoria weather history for previous 24 hours

 ConditionsComfort  
Time TempWeatherWind HumidityBarometerVisibility
10:51 AM
Tue, Mar 31
74 °FScattered clouds.14 mph76%30.09 "Hg10 mi
9:51 AM70 °FScattered clouds.9 mph93%30.09 "Hg10 mi
8:51 AM68 °FFog.No wind100%30.08 "Hg5 mi
7:51 AM65 °FFog.5 mph100%30.06 "Hg4 mi
6:59 AM66 °FMostly cloudy.7 mph96%30.06 "Hg8 mi
5:51 AM66 °FPartly cloudy.8 mph100%30.05 "Hg8 mi
4:58 AM63 °FFog.6 mph100%30.05 "Hg4 mi
3:51 AM60 °FFog.5 mph100%30.05 "Hg0 mi
2:51 AM61 °FFog.3 mph100%30.07 "Hg0 mi
1:51 AM62 °FFog.5 mph100%30.08 "Hg6 mi
12:51 AM63 °FClear.3 mph100%30.10 "Hg8 mi
11:51 PM
Mon, Mar 30
65 °FClear.8 mph100%30.11 "Hg10 mi
10:51 PM65 °FClear.8 mph100%30.12 "Hg10 mi
9:51 PM65 °FClear.6 mph97%30.12 "Hg10 mi
8:51 PM69 °FClear.9 mph90%30.10 "Hg10 mi
7:51 PM71 °FSunny.12 mph81%30.09 "Hg10 mi
6:51 PM75 °FSunny.13 mph74%30.08 "Hg10 mi
5:51 PM77 °FSunny.16 mph66%30.08 "Hg10 mi
4:51 PM78 °FScattered clouds.14 mph66%30.09 "Hg10 mi
3:51 PM81 °FBroken clouds.15 mph65%30.11 "Hg10 mi
2:51 PM79 °FBroken clouds.15 mph67%30.14 "Hg10 mi
1:51 PM78 °FPartly sunny.15 mph69%30.16 "Hg10 mi
12:51 PM77 °FCloudy.14 mph71%30.18 "Hg10 mi
Weather by CustomWeather, © 2015

See weather overviewHow to use our weather pages